Location: Malicorne
(47.1765°N, 0.8597°E)
Time: 16:19:58
(UTC+00:00)

Daily predictions for brighter satellites

Satellite Brightness Start Highest point End
(mag) Time Altitude Azimuth Time Altitude Azimuth Time Altitude Azimuth
Thor Agena Rocket 4.0 17:38:18 10° S 17:43:21 69° WSW 17:48:31 10° NNW
NOSS 3-4 (A) 4.2 17:38:40 10° NNW 17:44:53 43° NE 17:52:06 10° ESE
IRS-1C 4.2 17:39:43 10° SSE 17:45:03 89° W 17:50:25 10° NNW
NOSS 3-4 (C) 4.2 17:38:57 10° NNW 17:45:09 43° NE 17:52:23 10° ESE
Cosmos 1725 Rocket 4.1 17:40:09 10° N 17:46:26 88° W 17:52:43 10° S
Cosmos 2151 Rocket 3.6 17:45:36 10° N 17:50:07 73° E 17:54:36 10° SSE
Meteor 1-11 4.2 17:45:42 10° S 17:51:18 76° E 17:57:03 10° NNE
SL-08 R/B 4.5 17:46:36 10° N 17:52:48 84° E 17:58:53 10° S
Cosmos 1607 4.1 17:48:29 10° SW 17:54:37 80° NW 18:00:51 10° NE
Radarsat Rocket 4.2 17:49:13 10° SE 17:54:50 48° ENE 18:00:54 10° N
Cosmos 1455 Rocket 3.8 17:53:53 10° N 17:57:39 29° ENE 18:01:25 10° SE
Cosmos 44 Rocket 4.4 17:54:18 10° S 17:58:21 27° ESE 18:02:32 10° ENE
YAOGAN 1 2.6 17:54:58 10° SSE 17:59:06 52° ENE 18:03:15 10° N
Cosmos 1975 Rocket 4.5 17:56:28 10° SE 17:59:15 17° E 18:02:02 10° NE
PSLV R/B 4.1 17:56:16 10° SE 17:59:58 33° ENE 18:03:40 10° N
ATLAS 2AS CENTAUR R/B 4.3 17:54:35 10° WNW 18:00:11 25° NNW 18:05:44 10° NNE
Cosmos 2228 4.3 17:57:30 10° NNE 18:00:27 18° ENE 18:03:25 10° ESE
Cosmos 2297 Rocket 2.5 17:55:43 10° S 18:01:06 47° ESE 18:06:31 10° NE
COSMO-SKYMED 1 3.0 17:57:28 10° NNE 18:01:18 36° E 18:05:06 10° SSE
Cosmos 1782 4.4 18:00:43 10° NE 18:02:13 12° ENE 18:03:12 11° E
Lacrosse 5 rocket 2.6 17:59:43 10° W 18:02:43 26° NNW 18:05:46 10° NE
SPOT 1/Viking Rocket 3.7 18:00:56 10° SSE 18:06:03 81° WSW 18:11:13 10° NNW
Cosmos 2061 Rocket 4.0 18:01:42 10° N 18:08:07 83° E 18:14:25 10° S
Aureole 3 Rocket 2.8 18:04:24 10° N 18:08:09 44° ENE 18:11:13 10° SSE
CZ-2D R/B 3.4 18:05:07 10° SSE 18:08:56 55° ENE 18:12:53 10° N
Meteor 2-1 Rocket 4.3 18:04:40 10° N 18:10:31 84° E 18:16:27 10° SSE
CZ-4C R/B 2.2 18:08:09 10° SW 18:12:21 62° NW 18:17:47 10° NE
Okean 1 Rocket 3.0 18:08:43 10° N 18:13:08 82° E 18:17:29 10° S
Cosmos 1356 Rocket 4.0 18:09:39 10° NNW 18:13:32 58° W 18:17:26 10° S
SL-16 R/B 4.3 18:08:13 10° N 18:13:34 32° WNW 18:18:56 10° WSW
Okean 2 Rocket 3.3 18:13:59 10° NNW 18:18:24 76° W 18:22:44 10° S
Cosmos 2344 4.4 18:12:07 10° SSE 18:18:31 27° ESE 18:23:43 12° ENE
Cosmos 2221 Rocket 3.5 18:14:50 10° S 18:19:17 81° E 18:23:49 10° N
Cosmos 1602 4.4 18:17:47 10° SE 18:19:20 18° ESE 18:19:20 18° ESE
USA 267 3.7 18:15:37 10° NE 18:22:03 61° NNW 18:28:27 10° WSW
SJ-6B 3.4 18:20:58 10° SE 18:23:52 26° ENE 18:26:48 10° N
Cosmos 2263 Rocket 3.3 18:25:35 10° SSE 18:29:44 21° E 18:31:44 18° ENE
Cosmos 1025 Rocket 3.6 18:25:39 10° SSW 18:29:53 61° WNW 18:34:12 10° N
Cosmos 1980 3.7 18:24:58 10° NNW 18:30:40 88° ENE 18:36:20 10° SSE
Sich 1 Rocket 4.1 18:28:52 10° NNW 18:33:23 67° W 18:37:54 10° S
COSMOS 2428 4.1 18:28:28 10° NW 18:33:50 42° WSW 18:39:10 10° S
Meteor 1-31 Rocket 4.4 18:36:36 16° NE 18:36:36 16° NE 18:37:49 10° NNE
Cosmos 2237 Rocket 2.2 18:30:15 10° NNW 18:35:58 90° ENE 18:41:40 10° SSE
SKYMED 2 4.4 18:33:42 10° N 18:37:57 54° WNW 18:42:11 10° SSW
Meteor 1-27 4.2 18:32:49 10° N 18:38:38 73° ENE 18:44:26 10° SSE
SJ-7 4.3 18:36:38 10° S 18:40:19 77° WSW 18:44:01 10° NNW
Resurs 1-3 4.3 18:36:28 10° S 18:40:40 55° W 18:44:55 10° NNW
SeaSat 1 3.8 18:37:04 10° S 18:41:41 42° WSW 18:46:20 10° NW
Cosmos 1125 Rocket 4.2 18:37:03 10° NNW 18:42:08 56° WSW 18:47:11 10° S
Cosmos 1570 Rocket 3.9 18:37:08 10° SSW 18:42:25 79° ESE 18:47:40 10° NNE
Resurs 01 Rocket 1.5 18:38:45 10° SSE 18:43:06 71° ENE 18:47:30 10° N
SPOT 5 3.7 18:45:52 24° E 18:47:36 31° ENE 18:52:01 10° N
NOSS 3-3 (C) 4.3 18:44:03 10° WSW 18:49:15 56° NW 18:55:32 10° NE
DMSP B5D1-3 4.4 18:48:38 10° NNE 18:53:46 74° ESE 18:58:52 10° S
Tiangong -0.6 18:52:42 10° SW 18:55:22 25° S 18:55:41 24° SSE
NOAA 6 4.4 18:53:53 10° S 18:59:00 69° WSW 19:04:10 10° NNW
Cosmos 2227 Rocket 2.2 18:54:49 10° S 19:00:21 60° ESE 19:05:16 13° NE
SL-16 R/B 2.5 18:56:22 10° NNW 19:01:49 46° NE 19:03:58 32° ESE
Cosmos 773 Rocket 4.0 18:58:01 10° SSW 19:03:18 90° W 19:08:37 10° NNE
Cosmos 2208 Rocket 3.9 18:58:17 10° SSW 19:03:31 85° ESE 19:08:52 10° NNE
Cosmos 1346 Rocket 3.0 19:00:02 10° S 19:02:49 42° SE 19:02:49 42° SE
CARTOSAT-1 4.3 18:59:50 10° S 19:03:56 53° W 19:08:04 10° NNW
Tsikada Rocket 4.5 19:01:56 10° SSE 19:07:21 34° E 19:12:51 10° NNE
CZ-4 R/B 3.2 19:17:56 17° N 19:17:56 17° N 19:19:01 10° N
BREEZE-M DEB (TANK) 4.4 19:14:18 10° WNW 19:18:25 67° SSW 19:26:43 21° SE
ARIANE 6 FM1 Upper Stage 3.3 19:17:58 10° NNW 19:21:05 38° NNE 19:21:05 38° NNE
Gbstr 26 Del rocket 4.5 19:17:42 10° SSW 19:24:17 51° SE 19:26:27 40° E
CZ-4B R/B 3.9 19:26:09 33° NE 19:26:09 33° NE 19:29:54 10° N
Terra 3.6 19:30:49 18° NNE 19:30:49 18° NNE 19:32:15 10° N
Cosmos 1816 Rocket 4.4 19:23:13 10° S 19:29:22 90° NE 19:35:38 10° N
Helios 1A Rocket 4.0 19:31:19 27° SSW 19:31:19 27° SSW 19:32:55 10° SSW
CZ-4B DEB 4.2 19:29:07 53° E 19:29:45 56° ENE 19:35:06 10° N
Cosmos 2150 Rocket 4.4 19:24:56 10° NNW 19:30:01 60° WSW 19:34:58 10° S
Cosmos 1544 Rocket 3.5 19:26:04 10° N 19:30:02 69° NE 19:30:02 69° NE
Atlas Centaur 2 4.5 19:25:49 10° SW 19:30:33 18° SSW 19:33:53 13° SSE
CSL-04 Debris 4.0 19:30:41 42° SE 19:32:32 71° ENE 19:37:57 10° N
BREEZE-M (TANK) 4.0 19:29:44 10° W 19:32:52 46° SSW 19:36:14 26° SE
Cosmos 2298 Rocket 4.5 19:28:02 10° NNW 19:33:16 61° WSW 19:38:04 12° S
Cosmos 2034 Rocket 3.8 19:29:17 10° N 19:35:30 86° E 19:41:43 10° S
NOSS 3-4 (A) 4.3 19:29:21 10° NW 19:36:06 60° WSW 19:43:28 12° SSE
NOSS 3-4 (C) 4.3 19:29:37 10° NW 19:36:24 61° WSW 19:43:38 13° SSE
Cosmos 1975 Rocket 3.9 19:32:20 10° SSW 19:36:33 49° WNW 19:40:47 10° N
CSL-04 Rocket 3.4 19:35:10 40° SSE 19:37:10 83° ENE 19:42:28 10° NNW
Cosmos 1782 3.2 19:33:47 10° NNW 19:37:17 52° W 19:37:19 52° W
Cosmos 2228 4.0 19:33:40 10° NNW 19:37:40 44° W 19:41:39 10° SSW
TSX-5 4.4 19:32:48 10° NNW 19:37:23 57° NNE 19:37:23 57° NNE
Cosmos 44 Rocket 4.0 19:34:39 10° SW 19:39:28 53° NW 19:41:48 29° NNE
Lacrosse 5 rocket 3.3 19:38:03 10° NW 19:39:50 16° NNW 19:39:50 16° NNW
Cosmos 1634 Rocket 4.0 19:36:39 10° N 19:42:53 58° ENE 19:43:02 57° E
Cosmos 2297 Rocket 3.8 19:40:14 10° WSW 19:45:18 33° NW 19:50:25 10° NNE
Cosmos 1943 4.0 19:44:18 10° NNW 19:48:32 38° NNE 19:48:32 38° NNE
ATLAS 2AS CENTAUR R/B 4.3 19:48:40 10° NW 19:53:32 20° N 19:55:21 18° NNE
BREEZE-M DEB (TANK) 3.7 19:36:33 10° W 19:55:15 83° S 19:56:30 62° E
ERS-1 Rocket 4.2 20:02:08 31° N 20:02:08 31° N 20:04:44 10° N
Cosmos 2219 4.3 19:54:20 10° SSW 19:57:13 31° S 19:57:13 31° S
CZ-4C R/B 4.1 19:58:07 10° WNW 20:01:51 21° NNW 20:04:23 16° NNE
BREEZE-M DEB (TANK) 4.0 19:57:34 10° SW 20:02:06 69° SE 20:04:47 49° E
USA 267 4.2 20:02:29 32° NNE 20:04:26 39° N 20:10:22 10° WNW
Feng Yun 1-1 Rocket 4.3 20:09:36 80° SW 20:09:47 81° WSW 20:15:43 10° NNW
Cosmos 2263 Rocket 2.4 20:07:26 10° SW 20:13:05 67° WNW 20:13:31 64° NNW
PAYLOAD B 4.5 20:18:16 67° WNW 20:18:16 67° WNW 20:23:21 10° NNW
SPOT 5 4.2 20:24:54 37° WSW 20:25:24 38° W 20:30:07 10° NNW
Cosmos 2344 3.6 20:24:31 10° SW 20:32:13 68° NW 20:33:48 54° N
Cosmos 2227 Rocket 4.0 20:39:59 10° WSW 20:44:46 28° NW 20:47:09 21° N
SL-16 R/B 3.6 20:40:47 10° NW 20:45:43 32° WSW 20:45:53 32° WSW
